Theta_e
311 312 312 312 312 312 312 313 313 313 313 313 312 313 313 312 312 313 312 313 313 313 313 313 313 313 313 312 312 312 311 305 301 299 300 303 307 315 317 322 322 322 320 306 306 304 300 300 301 303 303 302 301 301 304 305 305 306 300 298 296 298 297 301 300 301 303 302 303 303 305 307 305 310 317 329 327 328 327 328 330 334 334 334 336 341 340 339
312 312 311 311 312 312 312 312 312 312 312 312 312 312 312 312 312 313 313 312 313 313 312 313 313 313 312 312 312 311 308 302 298 298 301 315 323 320 317 320 322 318 313 305 302 302 300 299 301 301 301 300 302 300 304 302 305 301 300 299 296 300 301 304 304 304 303 303 304 305 306 306 307 313 319 320 322 323 323 326 328 329 333 336 338 338 338 337
311 311 311 311 311 311 311 312 312 312 312 312 312 312 311 312 313 313 313 313 312 312 312 312 312 312 312 311 311 311 305 299 296 299 307 323 324 323 322 323 321 317 305 302 303 302 301 301 301 300 300 299 301 299 301 301 302 303 301 297 298 303 303 304 305 303 305 306 305 305 306 307 308 311 320 315 320 323 320 324 325 327 330 333 335 337 337 338
310 310 311 311 311 311 311 311 312 311 311 312 312 311 312 312 312 312 311 312 313 312 312 312 312 312 311 311 312 309 302 297 294 301 312 320 318 322 324 323 322 314 309 306 304 304 302 301 300 300 299 297 298 300 298 301 299 301 300 298 300 303 301 303 305 305 305 306 305 305 307 306 309 313 316 313 318 319 321 327 326 325 330 332 335 336 337 336
310 310 310 310 310 311 311 311 311 311 311 311 311 311 312 312 312 312 312 312 313 313 312 312 311 311 311 311 311 306 298 290 295 304 311 318 317 316 317 321 321 313 309 305 304 300 301 299 299 299 298 295 298 298 299 301 302 299 299 302 302 302 301 304 304 306 305 306 306 306 304 305 311 314 314 312 311 313 318 325 328 328 335 334 334 336 337 336
310 310 310 310 310 310 310 310 310 310 310 310 311 312 312 312 312 312 312 312 312 312 312 312 311 311 311 311 308 301 293 287 296 301 313 317 316 314 317 320 319 305 304 301 299 298 298 297 298 295 295 295 295 294 297 300 300 295 299 299 300 300 301 304 304 304 305 304 303 304 307 309 308 309 314 313 311 315 319 323 326 329 336 337 338 336 335 336
309 309 310 310 310 310 310 310 310 310 310 310 311 311 312 312 312 312 312 312 312 312 312 311 311 310 310 309 303 297 292 293 298 302 312 315 314 312 314 310 313 304 303 300 298 297 295 296 296 294 295 294 294 295 297 298 300 298 297 299 299 299 300 301 303 304 304 305 304 307 310 307 308 305 312 311 313 316 317 319 323 330 338 338 336 336 336 336
309 309 309 309 310 310 310 310 310 310 310 311 311 311 311 311 311 312 311 312 312 312 312 311 311 310 309 303 296 294 292 293 301 302 311 313 308 306 307 303 303 303 302 298 297 296 295 294 293 295 294 293 294 295 297 296 298 296 296 298 299 300 300 301 301 301 303 305 308 307 306 307 309 308 310 309 313 316 318 319 323 333 337 336 336 337 338 337
309 309 309 309 309 309 309 309 309 310 310 311 310 311 311 311 311 311 311 311 312 312 312 311 311 310 308 300 294 291 292 298 301 305 305 303 304 303 302 302 302 302 299 296 296 295 295 293 293 294 291 292 294 293 295 295 293 296 296 297 299 299 301 302 301 302 301 303 305 304 304 307 310 311 307 309 312 316 318 321 328 333 335 335 336 337 338 338
309 309 309 309 309 309 309 309 309 310 310 310 311 310 310 311 311 311 312 312 312 312 312 311 310 309 304 298 294 291 295 301 303 305 304 304 303 304 303 302 302 301 300 298 298 296 295 294 293 295 294 293 294 293 294 294 294 294 295 296 297 299 299 301 300 301 300 301 304 303 304 305 307 306 304 315 314 315 316 322 330 333 333 335 337 337 337 337
309 309 309 308 309 308 308 309 309 309 310 310 310 311 311 311 312 312 312 312 312 311 311 310 309 308 301 298 293 291 299 302 306 305 304 304 303 304 304 303 301 300 299 298 297 296 296 296 296 296 294 292 293 293 293 295 295 295 295 296 297 298 299 300 300 300 302 301 302 302 303 306 306 305 304 311 319 316 313 322 328 331 333 334 336 336 337 338
309 309 308 308 308 308 308 309 309 310 310 310 311 310 311 311 312 312 312 312 312 311 309 308 309 307 303 297 294 295 301 302 305 305 305 305 304 305 304 303 302 301 299 297 299 299 297 297 296 295 290 295 290 293 292 295 295 295 295 292 294 296 296 299 299 301 301 300 302 303 301 300 302 301 306 310 315 320 316 317 327 329 332 334 336 336 335 335
309 309 308 308 308 308 308 308 309 310 310 310 310 310 311 311 312 312 312 312 311 310 309 309 310 307 300 294 298 303 304 306 304 304 307 307 306 306 305 304 303 302 302 299 298 300 297 297 298 294 295 293 291 289 294 295 295 296 295 293 292 293 292 297 300 301 299 300 301 303 292 296 300 304 307 317 316 318 314 312 321 327 330 332 334 335 335 335
308 308 308 308 308 308 308 308 309 309 310 310 310 310 310 311 311 312 312 311 312 309 308 310 307 304 298 293 301 303 304 305 307 307 304 306 304 304 303 302 302 302 302 301 300 301 298 298 297 296 295 293 291 297 293 293 295 291 293 294 290 289 288 297 298 299 297 301 301 302 293 296 300 304 308 317 315 313 310 311 313 323 327 329 331 333 333 335
309 309 308 308 307 308 308 308 309 309 310 310 310 310 310 310 311 312 312 310 310 311 310 309 306 300 296 297 303 306 313 312 306 303 304 303 302 302 303 304 301 301 301 302 299 298 299 296 296 293 292 295 295 291 289 290 291 292 288 287 291 288 290 294 299 298 295 300 302 299 293 296 301 303 307 311 315 314 311 312 313 318 325 327 328 330 332 333
309 308 308 308 308 307 308 308 309 309 309 310 310 310 310 310 310 312 312 311 311 310 308 304 302 299 295 291 298 308 304 299 300 304 304 304 303 300 303 301 300 299 298 298 299 299 297 297 294 294 293 293 291 289 288 287 287 290 288 286 287 290 290 291 295 299 300 299 300 298 293 297 299 304 306 308 311 314 311 313 315 317 324 327 327 328 329 331
308 308 309 307 307 307 307 308 308 309 309 309 309 310 309 309 310 312 312 311 309 307 304 299 301 300 292 298 303 298 296 299 303 303 303 304 303 302 302 300 298 300 296 297 297 297 296 294 295 293 293 290 290 289 284 283 283 285 289 286 288 287 290 288 295 297 299 298 295 299 295 297 300 303 305 307 311 314 310 312 316 321 321 324 326 327 328 329
308 308 308 307 307 307 307 308 309 309 309 309 308 308 306 308 311 309 308 308 308 304 301 302 299 297 295 297 293 294 299 299 301 302 302 303 303 302 301 299 299 298 295 295 296 294 294 292 293 288 290 289 289 287 282 279 283 284 284 284 286 288 290 289 290 294 296 297 296 296 296 296 299 301 304 309 311 311 309 311 313 318 322 324 324 325 327 328
307 307 307 307 307 307 307 308 309 309 308 308 307 306 307 306 302 304 304 301 297 296 292 293 295 288 284 293 296 298 298 301 302 301 300 301 303 302 302 299 295 294 291 290 291 292 293 291 291 288 285 286 286 287 285 285 286 285 286 286 287 286 287 288 292 295 294 293 293 295 293 295 298 299 302 305 308 308 309 311 313 317 322 324 325 326 326 328
307 308 307 307 307 307 307 308 308 309 308 305 303 302 305 300 297 298 300 299 294 293 293 293 294 294 296 296 296 300 303 301 297 299 300 302 305 297 295 295 294 293 291 288 289 290 292 286 285 285 286 286 287 288 288 288 287 287 286 285 285 285 287 289 290 294 295 292 293 294 295 295 296 298 301 303 307 305 307 308 310 314 321 325 325 326 327 328
307 307 307 307 307 307 307 307 308 308 307 303 301 300 294 293 290 289 293 296 297 296 295 296 295 295 295 297 298 298 295 297 298 298 300 307 300 296 293 293 291 289 289 287 288 291 290 285 285 286 287 288 288 289 288 287 287 286 286 285 284 285 284 288 289 292 294 290 291 294 294 294 296 298 300 302 303 302 304 307 309 312 319 325 326 326 327 329
307 308 307 307 307 307 307 307 308 307 305 301 302 298 298 299 301 300 297 291 296 297 295 296 295 294 298 297 299 299 296 294 298 298 301 300 295 292 292 291 288 287 289 288 289 288 286 284 286 287 290 290 289 288 288 287 287 287 285 285 284 285 287 289 289 292 293 292 290 294 291 293 295 296 299 301 302 304 306 307 309 310 314 322 325 327 327 328
307 308 308 307 307 307 307 308 307 305 304 303 299 298 299 303 304 303 300 295 291 297 295 294 293 294 295 298 297 299 294 294 293 298 299 300 295 293 291 290 289 288 287 288 285 285 282 285 287 289 288 287 286 287 287 286 287 286 285 284 283 286 284 282 288 290 291 290 289 290 289 291 294 297 297 299 301 303 307 307 309 312 312 316 322 326 327 328
307 307 307 307 307 307 307 307 304 303 300 298 297 300 303 305 304 302 297 290 289 294 294 296 296 295 295 294 299 297 294 295 294 295 301 298 294 293 291 290 287 286 287 287 287 285 284 287 288 288 287 287 286 286 285 285 284 286 285 285 285 284 285 285 286 289 290 291 291 290 289 290 294 294 295 299 301 301 302 303 306 308 311 315 321 325 328 328
307 307 307 307 307 307 307 306 301 300 300 298 299 303 304 306 305 303 296 290 288 290 297 295 295 296 298 302 300 296 296 295 296 299 300 298 294 292 291 291 289 286 287 287 285 284 285 289 289 286 286 286 286 284 285 285 283 285 286 286 286 287 285 286 287 286 285 285 289 287 283 285 292 294 294 298 299 299 302 302 303 305 308 308 311 317 323 327
307 307 307 307 307 306 307 301 299 300 300 300 302 304 305 306 304 303 296 285 284 289 293 289 298 293 301 295 297 298 296 290 297 298 300 299 302 295 292 290 290 286 287 285 287 287 287 289 287 287 287 286 285 285 286 286 284 283 284 288 287 287 286 286 285 285 281 280 287 290 281 281 291 291 294 296 297 298 301 302 303 305 306 307 310 313 318 321
307 307 307 307 306 306 302 298 301 301 298 299 303 305 305 306 305 301 292 282 281 288 287 293 294 294 299 296 299 301 285 289 300 299 297 303 296 299 290 289 289 289 288 289 286 284 287 286 286 286 286 285 284 284 285 286 284 282 287 287 288 286 285 286 286 285 284 288 289 288 287 282 283 289 295 295 295 296 299 301 302 303 305 306 309 313 316 318
307 307 306 306 306 305 302 301 300 299 300 303 305 305 305 306 300 300 286 275 276 292 288 292 294 301 299 299 300 295 294 298 290 293 297 298 299 294 291 288 288 288 289 287 279 287 287 285 285 285 285 285 284 286 287 287 285 285 286 288 286 287 286 286 286 285 285 284 281 285 287 281 281 288 293 295 292 294 295 298 300 303 304 307 308 311 314 318
307 306 306 306 306 304 305 301 299 301 303 304 305 305 305 301 299 291 282 275 287 290 300 291 304 299 298 300 297 295 295 294 289 294 298 299 297 295 289 290 289 289 289 288 284 286 286 288 288 288 286 284 286 287 288 287 284 287 288 289 288 288 287 286 285 284 284 282 278 283 285 279 280 286 289 293 292 292 295 298 300 302 304 305 308 309 312 315
306 306 306 306 304 302 301 302 299 303 304 305 305 304 303 301 293 284 276 274 290 285 293 295 295 292 296 293 294 294 293 294 293 296 297 294 297 298 294 293 289 288 287 288 287 288 289 292 290 287 286 288 288 289 289 288 289 289 288 287 286 286 286 287 286 285 283 277 280 284 285 283 277 284 287 288 290 294 296 298 300 302 304 305 307 309 310 311
306 306 306 306 301 301 301 299 302 303 305 306 305 301 300 293 285 278 272 282 290 290 294 293 291 297 292 290 288 294 292 291 292 292 291 295 293 294 294 291 293 289 288 287 287 288 288 289 288 290 292 289 289 287 289 289 289 288 286 285 284 283 285 283 283 285 277 275 282 285 285 285 276 282 288 292 295 296 297 297 299 300 302 304 306 306 308 310
306 306 306 305 304 303 300 302 303 305 305 306 303 298 293 283 285 279 277 293 282 287 288 288 293 292 291 293 290 290 289 291 292 291 289 290 289 289 290 285 288 281 282 283 283 286 285 286 290 290 293 291 287 286 288 288 288 287 286 284 279 277 279 274 279 274 275 275 283 285 285 282 281 285 290 292 294 295 297 298 299 300 301 303 302 305 308 309
305 305 305 305 306 302 302 304 305 305 306 304 299 293 287 279 275 282 283 287 283 290 289 294 291 291 291 291 289 290 291 287 291 291 290 291 288 289 291 289 289 286 279 284 281 282 284 287 287 288 289 292 290 283 284 282 286 285 283 282 278 274 272 269 275 278 278 281 285 284 286 280 286 288 292 291 293 295 296 299 301 300 301 302 303 304 304 308
304 304 303 304 305 304 305 307 307 305 303 301 295 291 285 279 277 291 286 287 287 293 293 291 291 292 291 287 289 290 287 290 289 289 290 289 289 286 289 289 289 287 285 284 280 280 277 279 284 285 283 290 289 288 287 286 285 285 287 284 280 279 274 269 274 272 274 278 282 286 281 278 280 284 294 294 295 296 297 297 299 301 302 303 303 302 303 304
303 302 301 301 302 304 306 306 305 306 302 298 292 286 279 278 283 283 285 287 290 292 290 294 290 289 287 287 289 290 289 286 291 289 289 288 286 287 286 288 288 289 287 281 284 282 280 281 286 289 289 289 287 290 291 287 286 287 287 287 282 279 284 276 279 279 279 279 279 281 280 286 285 294 296 299 298 297 298 298 299 299 300 302 302 302 303 304
301 302 302 303 305 308 306 306 305 303 301 295 289 284 282 285 282 287 287 292 292 288 289 291 290 285 286 286 288 288 292 287 290 289 287 287 288 286 288 289 288 289 286 282 284 279 281 279 286 286 288 287 288 290 289 290 278 285 284 280 283 289 285 280 280 282 282 278 275 283 283 286 291 291 293 294 294 295 296 297 297 299 300 303 303 304 305 305
298 302 305 305 305 306 307 306 304 303 299 293 288 282 287 288 291 291 293 290 291 291 289 282 284 284 283 283 285 288 288 290 289 288 284 287 285 288 287 288 291 289 291 289 283 287 280 281 286 285 285 289 290 290 290 290 290 284 280 284 288 290 288 282 275 278 276 273 276 282 279 282 283 280 293 291 292 293 295 296 297 299 301 301 302 305 306 306
295 298 303 303 305 307 306 304 303 301 295 292 285 288 288 288 293 292 294 293 292 292 286 284 285 288 284 284 284 287 289 285 286 288 284 288 283 290 288 288 291 290 291 292 286 285 285 278 283 285 285 287 291 287 286 289 291 287 285 292 282 277 276 282 279 271 272 272 274 279 282 282 284 284 289 290 290 292 294 296 297 298 299 301 303 304 306 307
295 299 301 303 307 306 306 304 302 297 293 288 283 284 289 290 293 292 295 294 293 290 285 286 284 287 287 284 286 288 289 283 287 285 283 285 281 289 289 290 289 291 291 291 287 287 285 278 281 285 285 288 288 286 280 283 288 289 290 286 290 286 281 279 279 281 280 274 274 276 280 278 287 288 291 290 292 293 294 296 297 298 300 301 303 304 305 307
297 300 296 306 306 307 305 305 298 294 291 284 286 286 290 288 292 295 296 294 290 289 285 285 288 286 287 287 288 285 289 288 286 286 285 286 284 293 288 292 290 290 290 291 288 290 284 286 276 283 286 286 281 285 283 284 282 283 283 282 285 285 289 286 286 281 278 276 276 275 275 281 288 294 293 294 296 296 296 297 299 300 302 303 304 306 308 308
294 298 298 306 305 306 306 299 292 287 286 287 288 287 289 288 292 293 296 296 295 297 291 288 290 286 287 286 286 290 287 287 287 285 286 286 285 283 292 290 291 289 290 288 287 288 283 283 278 282 283 282 284 289 288 287 287 285 283 282 284 282 280 277 276 286 283 280 277 276 275 284 292 298 297 297 299 299 299 300 300 300 302 305 307 308 309 309
296 292 295 305 304 307 300 290 288 289 288 285 285 287 287 293 291 293 293 294 293 293 296 293 292 290 289 288 289 289 287 285 287 286 287 285 289 287 292 294 293 291 288 285 285 290 288 285 282 279 282 283 287 289 290 290 290 288 287 284 286 285 285 281 274 279 283 283 284 283 280 282 294 299 300 299 300 299 300 301 301 303 305 307 309 309 311 312
293 295 302 303 303 303 295 289 289 286 286 289 291 290 291 291 291 292 290 292 289 293 291 291 291 290 291 290 290 288 288 284 286 285 288 288 289 292 294 295 294 293 291 289 289 290 292 282 280 281 285 287 289 291 291 290 289 287 288 288 287 283 285 283 283 286 281 283 281 281 278 283 295 300 300 299 300 301 302 301 301 302 304 306 307 310 311 312
290 291 296 303 301 301 291 283 283 283 286 288 286 287 290 289 290 289 288 290 289 290 290 290 291 293 289 292 291 286 288 281 288 288 287 291 289 295 295 295 295 291 289 288 285 291 283 284 281 277 278 281 283 286 287 289 288 286 285 288 288 288 287 288 288 290 281 282 283 280 275 281 294 299 300 300 300 301 302 302 303 302 304 306 307 309 311 313
291 291 290 295 299 299 290 288 286 283 284 284 284 285 287 289 292 291 288 288 291 291 287 287 290 292 291 292 288 288 288 287 283 289 289 290 290 293 294 296 297 293 294 294 293 294 286 283 280 275 273 271 271 273 276 280 283 287 287 287 289 288 287 286 280 283 279 283 284 281 280 288 294 297 297 299 300 301 302 303 304 304 304 304 305 306 309 312
290 286 291 291 293 293 290 290 289 286 283 283 283 285 286 285 288 289 289 289 290 290 289 290 289 290 288 287 285 285 285 289 286 286 288 287 290 293 295 295 294 293 296 297 296 292 286 286 283 282 279 278 281 282 286 287 287 283 285 286 287 289 290 289 287 283 280 283 282 285 286 287 290 292 294 297 299 299 300 301 302 302 304 306 307 307 308 310
291 288 285 284 290 289 286 287 286 286 283 285 281 284 283 284 286 287 290 285 289 288 287 289 289 286 286 285 284 284 286 286 288 287 286 287 291 292 294 293 294 298 298 296 296 291 287 284 284 283 282 283 286 286 288 287 284 286 285 286 288 288 289 288 284 282 288 284 279 286 288 286 288 292 294 296 298 299 300 302 303 304 306 306 306 306 306 308
288 287 288 289 284 283 284 284 287 286 286 285 283 285 284 283 284 282 287 288 288 290 283 287 286 288 286 284 284 281 284 284 286 285 289 289 288 290 289 293 294 298 298 295 296 291 287 282 285 284 283 285 286 287 288 288 287 287 287 287 287 288 289 287 287 288 288 283 281 287 289 288 290 293 295 297 299 299 300 304 306 307 306 306 307 306 307 309
290 289 288 291 285 286 284 286 287 286 285 284 284 285 283 283 283 284 284 285 286 286 288 282 284 287 287 286 285 282 284 281 283 287 286 286 286 286 286 290 295 297 295 293 293 294 289 285 286 285 284 285 286 287 289 287 287 287 287 287 289 289 288 288 288 289 288 287 289 289 290 290 293 295 296 300 301 302 306 307 307 306 307 307 306 306 307 308
288 288 286 290 290 288 287 287 286 285 284 287 282 284 284 283 283 285 286 284 282 285 288 285 286 287 286 286 285 283 286 287 285 283 287 286 285 287 287 289 289 295 296 290 291 293 289 284 288 285 283 283 285 286 288 289 288 286 289 289 290 290 290 289 289 289 290 289 289 289 289 289 295 300 300 302 307 308 307 308 309 310 309 307 306 306 307 309
294 295 293 287 286 287 288 286 285 284 283 285 283 285 285 285 283 285 284 288 285 284 287 285 287 286 287 286 285 284 288 288 287 287 288 286 283 288 287 289 293 290 291 290 291 291 290 286 288 286 281 282 285 285 285 287 287 287 288 289 289 288 287 289 287 290 288 287 288 288 287 288 294 302 306 308 308 307 307 308 308 309 310 310 308 307 307 309
296 297 296 290 285 288 286 286 286 284 282 285 285 286 284 284 286 286 282 288 288 289 289 288 288 286 285 284 283 289 291 291 290 291 291 292 292 289 290 290 290 288 288 289 293 289 289 286 285 284 281 282 286 286 285 285 285 283 285 289 291 292 292 292 292 293 292 292 288 286 288 294 301 304 303 304 306 307 308 308 309 308 310 310 310 309 308 310
Wind_Speed
16 17 17 18 19 19 19 19 19 19 18 19 19 19 19 20 20 20 20 20 20 20 20 20 20 21 21 21 22 21 21 12 15 8 6 3 6 5 4 4 6 8 6 2 6 7 3 4 2 9 2 3 2 3 2 4 3 5 10 11 15 12 15 11 14 12 3 8 10 7 7 6 8 4 3 4 2 6 5 3 5 6 6 2 6 12 15 19
17 17 18 18 18 18 18 19 19 19 19 19 19 19 20 20 20 20 20 21 20 20 19 19 20 20 21 21 21 19 15 11 11 6 3 9 9 4 5 6 6 8 5 3 7 5 4 4 4 7 4 4 2 3 4 4 6 10 7 11 17 14 10 11 11 11 8 12 8 11 9 8 9 8 6 6 5 8 4 2 1 4 8 9 13 15 16 17
17 18 18 18 18 19 19 19 19 19 19 19 20 20 20 19 20 20 20 19 20 19 19 19 19 19 20 20 18 17 13 11 3 4 7 10 6 7 4 4 5 7 5 2 1 2 1 1 2 2 1 5 3 6 4 5 7 10 9 14 17 12 5 13 13 10 13 9 10 11 10 10 8 8 8 8 10 8 12 6 3 6 5 11 14 15 16 15
18 18 18 19 19 19 19 19 19 19 19 20 20 20 19 19 19 19 19 19 19 18 19 19 17 18 19 18 17 13 7 4 2 2 7 13 12 8 5 3 3 2 1 1 0 1 1 1 1 1 1 5 2 2 6 6 8 3 10 13 13 8 8 8 9 13 9 9 10 10 7 12 12 9 11 10 12 10 9 12 11 12 9 11 14 16 15 14
18 18 18 19 19 19 19 19 19 19 20 20 20 19 20 20 19 19 19 19 18 18 18 18 17 17 18 17 18 7 5 3 3 2 10 13 13 14 12 4 3 2 2 1 4 3 2 2 1 2 1 5 1 3 7 4 2 1 14 17 4 4 16 8 11 11 11 5 10 8 10 11 6 6 14 16 15 11 9 11 8 10 12 14 15 15 14 13
18 18 19 19 19 19 19 19 20 20 20 20 20 20 20 20 20 20 19 19 19 18 18 17 16 16 17 16 13 3 2 3 2 2 12 14 12 13 13 7 3 2 2 5 3 1 3 2 1 1 2 3 5 9 2 3 1 11 10 8 3 2 7 5 9 7 10 8 8 10 9 3 10 9 13 14 18 11 14 15 13 7 15 14 15 16 15 15
18 19 19 19 20 20 20 20 21 20 20 20 19 19 18 18 19 19 20 20 21 20 18 17 15 15 15 14 5 1 3 3 1 2 11 14 11 11 8 8 4 4 5 5 6 4 4 3 1 2 0 1 2 5 3 3 2 7 9 5 2 4 7 2 6 7 11 12 12 8 6 9 9 17 11 14 13 13 13 12 13 12 13 15 15 16 18 19
18 19 19 20 20 20 20 20 20 20 19 18 18 17 17 18 18 19 21 20 19 19 17 15 13 13 12 9 4 2 1 2 4 2 12 14 11 10 4 3 8 3 5 4 4 4 2 6 5 1 0 2 2 2 2 6 6 8 9 3 4 3 3 4 3 5 6 11 11 8 10 15 17 14 6 14 14 11 13 10 8 10 14 15 17 16 16 17
19 19 19 19 19 20 20 20 20 20 20 19 19 18 19 19 19 20 21 20 17 16 15 13 11 10 7 2 2 4 2 3 2 5 8 11 10 8 2 3 6 5 2 2 3 1 1 1 2 3 1 1 2 4 2 1 9 1 4 7 4 5 4 5 6 6 5 4 6 10 16 14 12 5 19 18 15 13 10 11 12 13 13 15 16 17 16 15
19 20 19 19 20 21 21 21 21 21 21 20 20 20 20 20 20 20 18 17 15 13 12 10 9 8 5 4 2 2 1 3 3 3 8 8 9 3 5 3 4 4 2 3 1 3 4 1 2 2 2 3 1 3 2 5 2 2 6 6 7 7 7 3 4 3 2 5 5 14 16 14 6 6 12 12 12 14 11 12 13 15 15 15 13 13 14 16
20 20 20 20 21 21 21 22 22 22 22 21 21 20 21 20 20 19 18 14 11 9 7 7 5 4 4 3 2 1 1 2 0 6 8 7 7 6 6 2 1 2 2 2 3 1 0 0 2 0 1 2 2 3 2 2 5 6 5 6 8 7 6 6 6 9 3 7 9 9 14 12 8 9 18 10 8 12 12 12 14 16 16 15 15 14 12 12
20 20 20 21 21 21 22 22 23 24 23 23 22 21 20 20 19 19 16 11 6 4 4 4 4 1 1 1 2 3 1 2 5 6 7 7 5 6 4 2 3 3 2 2 4 3 3 0 1 3 2 4 3 4 3 4 6 6 4 7 5 5 8 6 10 8 4 6 3 7 7 13 14 21 14 9 9 10 12 13 15 16 15 15 15 12 10 11
20 20 20 21 21 21 22 23 23 24 23 22 22 20 20 20 18 17 12 6 3 1 2 1 4 1 2 2 5 6 4 4 6 7 7 3 6 4 3 2 3 5 5 4 3 1 1 2 1 2 0 1 3 4 3 6 5 6 5 5 7 8 11 11 6 8 5 4 1 10 14 17 24 28 9 10 8 11 13 14 14 12 12 12 11 12 12 8
20 21 20 21 21 22 22 22 24 24 23 22 22 21 19 19 17 13 7 2 1 3 2 5 3 2 0 3 4 3 5 3 5 6 8 5 7 5 1 3 1 2 3 5 3 3 3 2 3 1 2 3 4 3 7 4 2 5 3 2 7 6 10 9 9 9 13 5 6 11 17 19 24 26 11 12 11 11 14 15 14 13 12 10 10 11 12 12
20 20 20 21 22 22 22 23 23 24 24 24 23 20 20 18 14 8 2 5 5 4 6 6 3 0 1 5 4 7 10 4 4 5 7 7 8 5 6 6 2 3 4 4 3 2 2 3 3 2 3 1 2 4 6 3 2 3 4 7 5 8 4 5 9 14 15 5 9 9 15 19 22 22 13 11 9 11 12 12 13 12 13 12 11 12 11 12
20 21 21 21 21 22 22 22 23 23 24 25 24 22 18 15 9 2 6 6 6 6 5 2 1 2 1 3 2 4 1 3 9 10 2 4 2 3 4 5 2 3 1 3 1 2 2 4 3 2 2 1 3 2 4 4 5 1 7 5 1 2 6 2 8 6 12 9 7 17 13 14 16 8 11 12 12 12 13 11 10 11 13 13 12 11 11 10
21 21 21 21 21 21 22 22 23 24 23 24 25 19 16 10 2 8 8 6 4 2 1 1 2 0 2 1 4 5 5 5 3 7 8 3 4 3 4 3 2 5 2 1 2 4 3 4 1 2 1 3 1 3 4 6 6 4 1 5 1 3 2 4 1 3 8 13 15 16 16 17 5 3 8 8 10 10 12 12 10 10 12 14 13 12 12 11
21 21 21 22 21 21 22 22 22 23 23 24 22 17 11 9 8 8 7 4 2 3 3 2 3 1 3 2 6 9 9 9 6 9 10 4 3 2 1 2 0 2 2 2 2 3 0 3 0 3 1 1 2 5 6 7 2 0 3 6 6 5 5 5 1 7 6 9 17 19 21 19 15 6 5 9 9 12 13 12 11 10 11 12 12 13 15 14
21 21 22 22 21 21 21 21 21 22 21 22 19 10 2 3 2 1 2 1 1 1 1 3 4 4 1 9 8 7 5 8 10 4 3 1 1 1 1 2 3 2 1 1 2 1 1 2 1 2 6 3 2 4 6 0 4 1 0 1 1 3 4 5 6 5 7 7 8 17 20 21 16 12 11 9 4 11 13 12 9 11 12 13 12 13 13 14
20 20 21 21 21 21 20 19 20 21 21 12 8 5 3 5 4 1 4 4 5 1 3 4 2 3 9 7 6 8 12 1 2 0 5 2 2 1 2 2 3 3 1 2 2 1 2 4 6 6 1 3 4 6 7 4 1 3 2 3 5 5 5 6 9 6 5 9 10 11 13 9 5 5 7 11 5 6 10 12 11 11 11 12 12 13 14 15
21 22 21 21 22 20 19 18 18 19 17 6 7 5 6 5 3 4 9 7 4 2 5 6 5 6 8 6 8 7 8 3 2 3 4 2 1 3 1 2 3 1 1 1 2 2 2 5 5 3 4 4 5 5 3 3 4 6 8 7 7 6 8 6 9 11 6 5 8 9 12 10 7 8 9 8 11 11 11 12 12 12 13 11 14 15 15 15
21 21 21 21 21 20 18 17 17 17 8 3 5 7 3 3 4 1 2 6 6 3 4 7 1 6 6 8 6 1 2 4 8 3 2 1 4 3 2 1 0 4 1 1 2 3 3 7 2 6 8 5 1 3 4 6 6 3 6 5 6 6 6 7 9 9 6 6 10 10 11 9 6 9 9 11 11 10 8 10 11 13 13 12 13 15 15 14
21 22 21 21 21 19 18 16 17 8 4 5 5 3 4 4 2 2 2 4 8 3 5 2 3 5 6 2 1 3 3 5 7 13 4 2 1 2 1 2 3 1 1 2 5 5 7 3 4 3 3 2 1 2 4 3 4 5 5 5 7 2 3 5 4 3 6 4 6 10 14 11 9 10 12 14 13 9 7 7 10 8 13 16 16 15 14 16
21 22 22 20 20 19 17 17 7 2 4 1 3 5 2 3 1 3 1 2 4 7 4 4 3 3 5 3 2 3 2 4 2 6 3 2 5 0 1 4 2 1 6 4 7 7 7 2 3 5 4 4 4 3 5 5 6 6 8 8 8 4 6 7 3 4 9 13 11 10 12 12 10 11 11 11 13 11 11 9 8 8 9 10 12 16 16 18
21 21 21 21 19 20 18 11 3 3 4 2 1 1 1 3 3 4 2 2 2 5 1 2 2 4 3 1 2 4 3 4 8 5 3 1 1 1 2 1 2 5 7 1 1 5 8 11 4 5 6 7 7 6 8 6 8 5 8 10 10 7 7 7 7 5 5 8 10 8 9 11 8 12 14 11 10 13 10 11 11 11 10 11 11 12 14 15
22 22 20 19 20 20 16 1 2 3 4 2 2 1 1 2 1 3 1 2 0 2 1 1 2 2 1 1 1 6 3 3 3 6 5 3 2 4 1 3 1 6 4 2 6 5 6 1 6 8 9 8 8 8 3 7 6 5 4 8 11 9 9 8 6 4 5 9 1 5 13 8 3 4 9 12 14 16 12 12 13 11 10 10 11 12 12 13
22 22 21 19 18 17 4 2 3 4 1 0 1 3 3 3 1 3 2 1 0 1 3 1 1 1 2 2 5 10 3 3 8 2 1 2 4 1 5 3 1 2 0 2 1 5 4 4 2 2 5 6 5 6 3 7 6 7 2 4 3 6 7 8 8 8 8 6 6 7 3 8 8 10 8 3 7 10 12 15 15 13 12 12 12 13 13 14
24 22 20 19 15 10 2 3 5 1 1 1 1 3 3 2 2 2 1 1 3 1 3 2 0 1 2 4 5 4 6 10 6 2 2 2 2 0 5 4 7 8 3 3 11 1 5 3 5 5 5 5 5 4 4 10 7 1 5 0 1 4 6 7 6 6 8 6 8 7 9 8 10 10 10 9 9 12 13 15 15 15 13 13 13 12 13 14
23 23 21 18 14 5 2 3 1 2 1 2 3 3 2 1 1 1 1 1 1 2 3 1 2 2 5 5 3 2 4 1 4 2 4 1 1 1 5 5 5 8 5 9 11 3 3 6 6 7 5 7 4 8 8 9 7 2 2 1 3 3 5 6 5 6 6 6 10 9 10 10 12 9 7 11 15 15 14 15 15 14 12 12 10 11 12 11
24 23 22 16 7 3 2 2 5 3 2 3 3 2 2 2 1 0 2 2 4 3 1 4 5 8 8 14 7 1 4 1 2 5 3 3 2 2 3 2 2 4 7 5 10 10 5 1 2 4 7 7 7 9 9 11 9 5 2 6 2 3 4 4 6 5 5 9 13 12 10 10 11 8 10 12 14 13 11 10 8 7 10 12 10 10 9 10
25 23 19 11 2 1 4 2 4 2 2 3 2 2 3 1 0 2 1 2 1 3 3 2 9 8 14 12 10 1 3 2 4 2 3 1 2 1 2 3 2 4 4 5 9 6 6 8 7 4 7 2 5 8 5 7 6 5 4 4 4 6 3 5 4 5 7 9 13 13 10 11 12 4 8 13 15 13 8 11 11 11 10 10 8 9 10 10
25 22 17 5 3 2 2 3 1 1 2 3 1 2 1 1 1 3 2 2 4 5 5 9 6 6 14 12 3 4 8 5 1 2 3 2 7 5 2 5 2 8 8 6 7 2 7 11 9 6 6 12 9 10 10 6 5 7 7 5 5 4 4 5 7 7 8 11 7 3 6 9 15 13 8 11 12 14 14 12 11 9 8 5 4 5 7 8
23 21 11 1 6 3 4 1 1 1 3 2 2 0 0 2 2 2 3 4 1 3 5 2 9 11 12 10 3 6 3 5 1 2 1 3 4 6 6 9 6 8 11 1 4 6 8 3 4 7 2 11 12 11 8 7 10 9 9 8 7 7 4 3 6 6 9 11 14 5 3 10 10 12 16 20 21 18 17 15 12 14 12 11 9 5 5 6
20 14 2 1 4 3 3 3 2 4 4 2 1 1 2 3 1 1 3 1 6 1 3 4 16 13 3 2 5 5 6 4 1 1 2 7 6 9 2 6 7 7 5 3 5 3 7 4 5 7 3 5 13 12 10 5 5 10 9 8 9 7 4 5 6 6 8 9 7 8 9 4 4 3 14 18 19 18 19 19 17 12 11 10 10 8 9 9
17 2 0 1 1 4 6 4 2 1 1 3 4 2 3 1 1 2 3 3 3 6 8 9 10 9 4 1 2 3 2 5 2 6 9 7 6 5 6 4 3 6 2 4 2 2 7 8 3 8 1 6 9 11 10 9 8 7 8 9 8 12 7 8 4 7 6 5 6 5 6 4 7 5 4 7 10 10 14 19 19 19 17 15 12 10 9 9
6 2 1 1 2 2 3 1 2 2 2 3 4 3 1 1 1 1 2 1 2 4 12 13 3 2 2 5 1 5 2 3 11 9 6 4 8 8 2 3 4 10 6 6 2 4 2 5 1 2 4 8 10 6 9 10 8 7 8 10 13 8 10 4 4 5 2 4 6 3 6 9 11 15 17 17 15 15 12 13 14 16 16 12 11 10 9 9
3 4 3 4 4 5 4 2 1 1 3 3 3 1 1 2 3 2 1 4 7 6 5 7 2 2 5 7 7 9 3 5 5 6 9 1 6 5 3 4 4 7 10 6 3 6 7 8 1 4 13 6 6 8 7 11 7 4 10 11 3 5 3 5 6 3 5 8 5 5 10 11 8 8 3 15 17 14 14 13 13 14 12 11 11 9 9 9
3 2 1 2 5 5 1 1 2 3 3 4 3 1 1 1 2 3 1 4 3 1 3 1 2 1 2 6 8 9 12 8 7 10 9 2 5 4 2 3 4 7 9 8 6 1 2 7 4 1 5 3 2 5 5 10 10 11 2 4 7 6 7 9 4 6 5 7 6 9 12 13 11 11 6 5 11 16 16 13 10 12 13 12 9 10 9 10
0 1 2 4 5 3 3 1 5 2 1 5 1 2 1 4 2 3 3 2 3 1 2 2 2 0 1 6 5 11 12 8 11 9 9 1 3 3 5 2 2 3 3 6 6 2 2 5 3 2 1 3 1 4 6 6 10 11 9 8 2 4 8 9 8 4 5 6 6 9 11 10 9 10 11 15 13 12 14 12 12 13 12 9 8 8 9 9
2 2 2 3 7 4 3 3 3 4 5 3 1 2 1 4 4 6 5 2 2 2 3 2 5 5 5 7 9 9 7 10 10 9 2 1 5 5 5 3 5 2 0 7 6 1 2 1 8 2 2 3 3 4 5 5 6 7 8 8 4 4 4 3 2 7 7 7 7 7 9 7 8 7 11 13 13 15 13 12 10 11 10 11 11 9 8 8
1 3 1 3 8 6 1 6 7 6 3 1 3 3 3 3 6 4 3 3 4 4 4 3 2 3 3 5 5 2 6 10 10 8 3 3 5 4 5 1 1 3 0 2 6 2 2 4 9 7 7 7 8 4 3 1 3 7 8 9 8 6 7 8 9 5 7 7 6 6 9 6 4 2 4 8 4 1 2 3 5 8 10 9 7 8 8 7
1 2 3 5 8 5 3 5 4 2 2 2 3 4 5 5 4 5 3 2 3 3 2 3 4 7 6 5 7 6 8 10 8 8 3 5 5 5 3 4 0 2 3 2 3 4 3 1 4 9 8 9 9 6 5 6 4 3 5 8 8 7 7 8 9 8 7 9 8 8 7 8 9 1 4 2 2 5 5 5 6 5 6 8 7 8 7 8
5 1 4 6 7 1 4 4 4 2 1 1 6 3 3 4 4 2 5 2 5 1 2 3 4 3 4 4 3 7 8 8 9 5 3 5 7 10 8 7 7 7 4 3 1 5 6 2 5 10 10 12 15 13 8 9 7 7 8 7 6 11 12 10 7 1 4 3 6 7 10 10 6 1 3 5 8 7 5 4 6 7 7 9 11 10 11 10
0 2 4 4 5 3 8 4 5 5 2 3 2 5 3 4 2 7 4 5 3 3 1 3 3 5 5 1 5 9 7 6 4 8 9 6 6 3 7 8 7 5 6 5 4 7 3 3 4 5 6 3 3 4 4 3 7 5 6 7 9 7 11 4 1 2 6 9 9 5 12 12 3 2 4 6 8 8 8 5 3 8 8 8 9 10 10 10
1 2 2 6 7 6 5 2 1 2 5 7 5 6 7 3 2 5 8 6 3 2 3 3 3 3 4 2 7 10 7 8 8 6 11 11 8 4 13 10 7 11 9 8 7 6 4 3 4 3 3 3 3 2 3 5 8 5 4 8 8 11 9 6 9 6 8 6 10 10 12 11 7 14 12 10 9 9 8 9 7 5 7 10 11 12 11 9
3 1 3 4 5 4 5 1 4 1 2 5 5 3 3 6 3 6 3 6 2 3 3 5 2 1 3 6 11 8 8 6 7 7 8 10 9 5 6 16 17 13 12 16 11 9 2 2 4 4 4 6 6 3 2 3 1 7 7 10 10 12 12 11 6 8 10 6 8 11 12 16 18 17 15 14 9 10 11 12 12 12 11 9 9 10 10 11
0 3 2 5 3 4 4 3 3 2 3 2 2 3 5 6 9 6 1 3 3 6 4 2 2 3 4 9 9 12 8 9 8 14 13 13 8 10 18 16 13 12 4 11 14 5 2 5 8 9 11 11 12 12 10 7 9 9 8 9 13 13 13 13 9 10 6 4 11 11 15 18 17 14 15 16 10 9 9 9 11 11 11 11 12 13 15 13
3 0 1 2 1 3 3 0 6 5 1 1 2 1 4 7 8 9 6 1 8 5 1 0 1 2 1 2 8 8 9 14 11 6 10 8 11 11 15 12 8 5 6 7 13 6 4 5 2 8 9 12 14 15 14 10 10 9 9 9 9 12 12 13 11 10 6 8 12 16 18 19 16 13 15 14 6 8 11 13 12 12 12 12 12 13 13 13
3 1 1 2 1 1 2 6 7 5 7 3 2 2 5 6 6 5 4 8 6 4 1 4 4 7 8 3 5 8 9 10 9 5 6 11 12 13 9 8 3 6 6 5 9 3 2 7 6 7 9 9 11 13 12 12 9 8 12 12 11 10 13 15 15 12 13 15 18 19 17 18 16 15 17 8 1 8 10 10 10 10 10 11 13 13 13 13
3 2 1 3 2 3 3 3 2 3 4 2 3 1 2 3 6 9 6 3 6 5 1 5 11 12 11 9 6 7 9 8 13 16 12 6 17 5 7 7 6 2 3 2 3 2 3 4 3 1 4 8 11 9 10 11 10 11 10 10 10 9 10 11 10 10 9 15 18 21 21 21 17 11 11 6 5 7 9 11 12 11 9 11 13 14 14 13
1 1 0 3 2 1 1 2 2 3 2 1 3 3 5 1 6 10 13 8 11 5 2 8 12 17 11 9 11 13 15 15 12 16 16 12 14 8 3 3 2 6 3 0 4 2 6 5 3 2 4 7 1 5 7 6 9 11 10 8 8 8 8 8 9 11 12 15 18 19 18 17 18 6 8 9 6 6 8 10 12 11 11 13 15 16 15 14
1 1 1 1 1 2 2 0 2 1 1 1 1 2 3 8 8 10 10 3 7 11 10 11 11 10 16 12 15 14 16 14 18 21 16 15 14 13 14 15 9 9 6 6 1 3 4 3 4 3 7 7 1 3 4 3 5 5 9 6 5 5 6 3 7 8 14 16 14 13 15 10 7 9 12 13 12 11 8 5 7 13 13 14 15 16 16 13
Wind_Direction
354 351 351 351 350 350 345 345 346 345 344 343 341 340 340 339 336 335 335 333 332 332 332 331 332 332 332 331 331 332 336 339 320 342 12 39 256 263 326 314 328 324 329 342 7 33 10 14 14 348 177 217 178 219 158 191 168 177 208 212 224 222 211 174 196 185 142 184 185 202 199 185 190 191 135 111 322 127 135 195 111 74 51 92 112 124 142 148
351 349 351 349 345 344 346 347 346 345 343 341 339 339 338 336 335 333 332 333 331 330 331 331 331 331 330 330 331 334 341 327 317 300 79 322 346 307 298 326 340 354 330 29 26 31 29 14 350 345 191 207 88 213 155 194 190 198 207 219 231 216 217 157 192 183 161 204 169 190 194 190 197 176 160 179 175 142 139 159 220 123 88 109 120 129 147 152
352 350 349 347 346 345 344 344 343 342 339 339 339 338 336 335 333 333 333 333 331 331 331 330 331 331 330 328 329 336 341 323 257 60 358 354 13 32 28 346 358 12 28 358 33 9 12 311 310 309 256 230 167 200 189 192 184 213 214 218 232 222 194 192 186 189 209 171 193 191 196 194 186 197 136 206 176 189 169 169 194 201 139 135 136 143 149 157
348 347 346 344 344 344 343 343 342 340 339 340 338 335 333 333 333 332 332 332 330 332 331 330 331 331 327 325 329 332 334 278 128 54 355 9 11 2 356 15 55 37 55 78 225 288 201 125 128 82 126 228 173 259 200 186 201 152 228 226 231 190 221 198 197 197 204 186 195 200 190 216 202 188 177 187 174 205 185 181 169 195 174 150 151 147 152 160
346 345 344 343 342 342 342 340 338 338 338 337 335 334 333 333 334 333 330 331 330 330 329 330 329 326 327 328 325 340 317 259 117 38 348 356 0 354 346 354 83 62 61 159 144 49 95 50 153 74 179 209 259 210 237 206 259 246 223 232 249 158 227 177 201 199 199 214 218 181 185 215 182 174 196 186 189 186 189 207 218 175 151 153 159 157 155 164
344 344 344 342 341 341 339 337 338 339 338 336 335 334 332 333 332 332 330 329 329 327 326 326 327 328 327 333 321 297 269 321 49 20 328 354 0 351 351 6 50 76 58 42 49 349 22 19 350 174 167 213 202 209 64 252 134 231 243 266 302 309 245 164 200 211 202 191 214 203 199 116 198 206 201 200 203 180 186 185 201 178 163 166 155 153 159 167
345 344 344 342 340 339 338 338 339 337 334 334 331 330 330 330 330 327 326 326 324 323 321 321 323 327 334 328 315 8 56 310 4 306 341 345 352 354 348 359 7 38 47 52 21 32 14 41 77 27 322 250 281 259 307 300 306 265 243 41 15 30 230 328 234 204 206 208 212 207 110 201 193 221 189 211 207 189 204 190 191 179 158 146 154 171 167 172
346 346 342 341 339 335 334 339 336 334 331 331 332 331 331 330 325 322 321 320 319 317 316 316 318 329 349 337 340 310 82 283 319 257 336 339 346 341 331 334 12 6 46 63 23 35 359 42 44 280 6 259 59 231 11 287 264 247 253 2 328 276 252 284 302 292 262 226 211 203 195 207 207 217 183 218 204 195 198 190 170 154 157 163 162 175 179 178
345 344 343 340 337 336 334 335 334 332 333 333 332 331 328 325 321 318 319 317 316 311 309 308 318 332 34 302 29 308 98 247 249 294 332 337 332 329 354 6 351 30 90 54 12 131 83 74 11 6 320 324 91 294 7 192 238 3 321 333 316 278 301 307 299 268 246 257 239 210 223 220 215 210 232 227 208 203 200 192 158 161 166 169 173 174 178 181
346 343 342 340 339 337 337 335 334 333 332 331 330 328 326 322 317 317 319 315 313 306 299 306 316 348 16 355 278 333 72 260 275 306 330 328 316 280 100 77 9 20 5 4 341 35 57 103 41 319 250 275 320 265 321 246 288 343 305 298 298 297 308 295 262 287 35 250 225 223 222 227 187 180 229 216 195 197 195 187 160 162 176 181 181 181 180 177
345 344 343 342 340 339 338 336 334 333 331 330 327 327 325 320 316 319 325 318 310 305 299 296 313 335 11 354 16 347 97 343 169 321 323 324 308 352 339 20 100 75 47 9 45 27 294 136 215 146 215 325 341 286 238 336 332 300 304 294 275 274 271 273 290 274 276 251 218 230 239 234 211 195 232 174 180 192 191 183 174 175 180 185 186 182 190 186
346 344 346 343 339 338 337 336 335 333 330 329 327 325 323 317 318 324 329 326 314 312 12 31 35 66 53 316 224 242 115 298 321 325 315 314 300 307 269 237 154 140 152 301 306 274 224 274 167 16 286 14 268 300 262 335 308 312 316 278 274 277 264 238 244 251 208 254 224 187 252 244 228 231 214 138 164 189 202 195 186 186 182 190 183 184 184 195
345 345 346 342 340 338 337 335 336 333 331 328 324 322 320 316 320 327 333 338 343 332 155 181 101 64 334 296 222 241 287 297 318 321 298 265 279 241 262 193 206 184 180 165 242 193 169 186 35 315 216 292 312 272 24 306 304 302 252 257 275 259 260 230 233 250 227 229 185 155 227 221 227 232 182 142 161 181 201 208 194 199 193 192 187 184 191 181
345 346 343 340 340 339 337 337 335 333 330 327 323 322 320 315 323 331 341 341 147 138 153 110 93 77 337 247 272 256 266 283 303 301 322 305 331 338 146 82 169 222 221 200 226 203 196 218 243 275 137 243 262 357 296 322 274 269 308 216 240 240 251 174 201 222 243 184 208 198 230 228 227 229 188 164 185 170 197 205 199 196 204 202 194 196 192 187
344 347 345 342 341 338 337 337 334 332 330 326 322 321 318 318 325 330 42 99 103 115 104 89 52 253 338 282 263 269 261 253 294 311 325 338 345 337 354 349 58 190 211 214 156 164 166 136 184 244 269 167 286 280 279 290 317 291 266 231 212 232 231 128 193 208 224 175 209 213 239 236 229 224 187 166 184 193 206 201 202 190 196 205 207 204 205 196
346 346 344 343 342 339 339 337 335 333 330 325 320 320 317 320 329 1 126 102 105 103 91 120 97 74 260 358 17 299 48 347 327 326 301 328 284 288 315 299 273 124 149 233 223 163 141 154 236 290 255 149 234 242 267 282 239 214 242 273 314 217 255 296 213 209 220 229 214 212 241 237 241 213 151 177 181 193 207 208 197 190 193 200 206 206 207 203
347 343 341 343 341 340 339 337 336 333 330 324 319 319 321 323 23 101 101 99 85 84 94 138 159 210 27 101 247 351 348 294 314 314 323 295 235 264 314 11 15 352 130 128 123 136 127 191 79 167 55 266 241 214 249 245 253 232 122 265 17 276 318 210 11 187 206 207 228 220 236 244 256 131 174 192 187 186 206 206 207 194 194 197 201 206 208 206
344 344 342 343 341 341 339 337 335 334 330 323 319 319 312 321 132 101 79 75 78 51 80 40 111 217 228 321 1 319 317 299 313 310 300 286 253 168 224 38 1 341 16 111 80 219 115 208 272 231 139 157 197 213 217 248 244 76 216 237 233 226 251 271 248 55 339 212 225 230 239 244 240 248 235 208 194 198 205 201 200 201 200 199 204 204 207 205
344 343 344 342 340 340 338 337 336 335 330 323 315 325 182 105 84 75 76 345 177 354 347 22 357 30 316 318 310 273 272 286 298 267 293 71 121 221 114 112 65 10 52 311 97 232 97 220 177 215 235 185 200 236 247 108 112 102 99 312 5 237 207 217 271 345 5 335 263 231 235 240 239 233 251 273 229 218 212 206 197 203 200 199 201 206 206 207
344 345 343 339 338 339 338 337 337 334 334 329 343 355 360 24 359 293 354 26 63 222 293 286 146 265 298 285 290 306 282 257 281 211 275 280 277 225 62 8 48 73 62 295 1 53 350 226 230 236 118 139 189 210 234 185 286 296 251 276 271 277 281 284 282 268 343 325 269 263 269 284 325 276 251 264 257 234 238 206 199 203 201 199 201 207 210 208
345 343 342 338 340 338 337 338 337 333 336 335 319 35 44 352 4 348 336 302 252 287 255 257 215 238 255 313 303 344 359 309 126 286 295 358 251 315 5 341 34 265 32 346 292 30 288 265 245 125 172 195 213 188 142 221 253 274 273 273 266 252 264 267 283 293 311 303 282 285 287 282 270 269 272 271 267 248 228 222 204 195 201 200 198 206 209 212
344 342 341 342 339 337 338 337 336 336 336 340 23 58 95 35 334 2 352 322 316 257 240 258 12 268 258 245 248 301 177 290 330 314 347 299 28 325 23 301 184 293 43 260 267 255 251 266 99 191 217 210 190 169 201 228 243 226 254 256 262 253 262 270 266 275 294 283 270 285 290 291 289 284 275 257 258 263 243 232 224 192 196 202 203 205 206 210
344 343 342 342 340 337 336 335 333 346 354 20 47 69 58 335 342 270 212 276 274 241 265 255 230 244 281 218 233 175 284 351 318 300 319 14 247 356 300 267 241 323 232 223 270 283 280 345 229 240 62 157 167 167 188 204 227 239 226 233 243 255 252 252 177 308 292 276 292 303 301 291 286 269 263 265 261 265 271 239 245 241 203 196 201 202 204 207
343 344 343 341 339 336 332 334 332 49 36 45 123 69 101 309 340 150 136 257 310 309 220 226 261 252 256 324 137 190 320 306 183 301 27 0 340 70 238 216 226 217 262 234 238 251 265 169 127 149 173 213 260 195 193 213 235 210 236 245 254 207 233 251 292 331 308 286 272 282 283 277 264 258 256 250 250 255 262 256 234 221 242 237 209 202 202 204
343 343 343 341 339 335 330 327 44 6 309 167 227 244 295 304 291 190 223 278 205 261 198 258 186 240 216 97 124 300 262 274 222 282 286 335 257 239 289 49 243 246 251 257 308 252 252 249 195 256 234 229 228 214 220 228 246 238 218 235 246 236 249 231 253 274 269 269 246 231 271 261 234 241 248 248 244 244 242 252 244 231 216 215 232 229 214 211
342 342 342 341 339 335 323 274 5 343 317 78 86 13 277 314 283 207 201 36 70 319 189 113 171 34 146 212 248 292 276 277 171 236 212 218 204 265 340 248 180 280 217 206 257 275 272 7 190 217 227 214 219 243 223 221 255 254 259 211 232 230 228 239 228 214 233 241 91 180 235 253 91 259 228 233 239 246 241 238 246 232 217 212 212 219 221 215
340 340 340 339 339 339 340 31 325 285 33 108 232 310 335 308 253 142 246 312 325 47 330 314 229 69 238 313 321 317 302 8 317 358 158 183 208 144 235 232 240 228 262 137 303 238 171 224 197 235 220 216 215 237 186 198 236 245 142 160 205 213 220 231 231 220 251 280 292 293 261 268 267 249 265 232 269 254 245 239 238 237 219 215 213 210 214 218
338 338 336 336 337 339 253 308 345 33 292 345 287 326 327 311 146 71 249 63 334 322 335 335 260 182 323 334 305 293 274 309 316 94 346 4 187 145 218 232 242 262 205 190 258 100 180 179 217 212 219 224 235 206 189 204 211 218 85 21 131 246 249 254 240 236 247 268 264 222 230 262 248 247 245 264 261 257 247 243 240 237 232 221 216 217 216 216
337 335 332 332 336 356 207 201 160 244 244 299 298 327 348 104 150 149 105 167 89 307 137 187 118 161 329 288 310 196 301 281 273 305 321 208 94 288 239 238 235 252 218 222 258 248 250 236 221 218 219 246 181 196 192 185 224 194 181 266 257 244 244 235 236 243 244 240 247 228 197 238 255 239 227 243 252 249 243 242 242 238 239 234 223 217 224 229
334 331 329 330 327 124 112 166 224 245 308 291 312 302 122 67 200 229 35 286 19 347 76 304 322 328 331 340 347 98 324 275 239 315 329 292 330 300 240 76 234 236 247 216 243 258 280 260 147 190 219 229 195 203 199 192 223 101 288 283 251 248 255 228 233 233 238 239 248 240 203 219 264 226 219 220 233 242 247 252 262 268 254 248 236 222 227 224
332 328 327 325 269 195 155 259 255 233 262 283 303 97 130 47 165 88 84 322 309 274 294 56 343 328 342 0 330 306 262 262 298 337 300 305 253 74 338 247 111 258 256 249 253 247 249 246 236 220 217 193 213 229 220 224 197 190 242 258 281 257 215 234 217 214 229 245 246 241 217 203 241 204 220 236 245 255 261 262 261 254 250 253 235 226 231 234
331 329 327 305 191 149 233 332 113 178 273 269 342 56 131 258 13 72 260 71 280 354 338 326 341 351 323 332 277 295 328 310 176 299 294 298 288 279 236 283 285 295 271 241 258 63 251 235 225 238 199 209 201 235 231 211 195 223 236 228 232 230 165 221 202 209 221 239 238 226 192 229 237 253 280 273 262 258 254 253 259 265 267 270 278 250 239 236
331 331 324 216 173 209 242 277 105 308 304 323 75 45 56 88 356 264 284 343 292 44 330 250 303 327 315 309 311 315 189 313 354 269 297 244 275 260 219 249 212 229 279 6 294 296 276 226 225 223 243 211 212 223 224 219 219 218 216 203 206 222 205 229 212 224 238 237 253 263 212 254 267 254 222 247 253 251 258 258 251 255 260 266 264 253 252 251
329 329 344 83 206 235 268 254 290 331 330 36 161 48 49 52 324 126 290 290 303 325 303 347 322 324 344 329 323 339 320 204 280 295 345 294 287 300 271 220 212 227 234 277 278 311 301 296 192 175 219 154 213 222 235 237 157 217 213 207 216 218 183 206 222 212 222 247 246 213 227 241 224 212 180 219 241 240 242 251 255 246 249 254 260 255 257 254
327 325 338 355 306 255 255 271 265 216 131 311 48 87 94 254 225 303 306 325 296 316 304 328 312 317 312 260 288 307 160 319 151 306 303 296 301 286 292 312 195 216 132 262 193 241 247 258 247 198 23 166 212 222 231 217 233 209 206 206 220 222 215 234 207 224 244 259 259 181 217 261 245 15 296 252 260 255 240 237 239 249 249 250 255 248 239 240
342 357 280 37 342 325 323 291 125 155 310 1 79 41 56 147 2 199 308 230 328 328 318 317 301 303 288 322 229 320 155 277 312 315 298 226 277 286 194 236 208 181 174 224 158 256 207 238 205 234 232 230 233 227 212 202 219 174 179 206 217 230 215 253 294 273 345 294 272 263 266 254 269 271 260 263 254 256 253 258 252 243 241 232 238 242 224 228
24 319 64 337 340 342 347 82 103 336 31 81 90 81 225 276 228 175 285 335 312 304 322 342 343 340 331 328 320 327 334 262 280 339 325 245 288 210 247 248 202 189 211 220 246 223 271 285 201 278 279 205 245 216 223 202 221 112 205 218 107 39 296 241 252 250 250 256 261 200 245 258 248 274 201 234 248 256 258 250 249 254 251 237 229 230 220 219
5 33 158 4 336 321 326 139 300 19 67 74 60 20 65 321 101 238 264 323 341 47 324 272 279 223 318 328 312 333 334 322 319 331 304 349 291 155 231 280 183 210 215 205 249 1 201 286 287 254 275 324 347 170 206 227 222 233 183 45 210 191 200 199 235 245 235 232 252 237 248 253 246 248 281 275 232 241 250 252 249 250 247 242 234 233 227 215
119 134 45 338 340 348 311 168 53 22 85 61 23 355 261 254 275 263 264 299 225 297 265 229 234 215 312 309 289 315 327 323 325 317 328 71 309 175 251 221 290 204 246 190 225 203 164 278 284 160 250 4 158 188 231 195 210 232 281 268 289 273 208 181 198 234 229 250 237 255 245 253 234 248 250 257 252 253 256 245 237 240 242 247 248 236 229 205
40 61 4 315 326 345 343 63 46 44 52 63 346 270 89 282 286 279 277 239 267 145 238 261 207 284 293 283 306 307 318 309 315 308 224 238 261 261 265 169 281 12 164 210 231 136 252 178 272 189 219 280 251 187 242 215 187 203 215 234 228 237 349 289 140 215 219 231 232 250 247 239 239 226 239 247 238 231 242 250 238 232 232 230 232 240 240 231
282 98 276 300 336 316 71 39 42 32 61 193 211 251 306 292 320 275 293 226 251 210 240 229 254 268 285 314 305 325 311 313 304 297 271 268 186 325 73 276 5 288 140 238 247 187 219 207 250 281 288 258 249 187 233 199 257 210 202 223 215 205 210 208 218 196 241 232 232 235 250 259 255 120 244 262 267 268 320 287 285 284 279 271 255 240 246 254
38 33 336 344 337 336 46 56 36 60 67 37 348 324 304 326 302 288 306 37 211 276 88 283 250 254 267 257 277 311 318 302 285 297 237 231 203 191 277 248 17 230 183 230 232 183 213 100 258 265 254 262 269 253 215 257 259 259 237 229 215 216 225 223 227 206 209 237 265 265 282 263 273 188 232 232 286 286 283 284 272 280 275 278 275 272 263 258
35 110 293 316 336 355 75 90 161 65 6 293 312 272 268 270 264 282 323 358 336 179 299 240 244 262 244 241 305 308 326 288 271 262 246 230 256 237 255 206 186 249 208 270 216 204 144 243 250 263 274 266 260 262 254 231 223 244 230 234 215 217 214 230 241 359 252 236 246 247 249 259 245 84 263 276 272 265 255 245 280 282 286 281 280 276 272 269
225 298 327 302 350 37 64 47 349 343 334 320 326 275 258 260 291 317 312 322 311 325 300 313 312 209 287 289 297 301 318 305 249 249 280 263 268 253 254 261 202 230 168 220 219 155 208 204 226 286 300 285 157 129 124 114 193 213 221 208 220 234 230 226 109 91 248 240 249 257 245 241 191 272 249 282 309 313 310 302 228 286 286 280 272 259 248 249
232 234 254 304 348 22 87 158 97 302 340 338 333 328 340 313 236 297 305 291 279 258 348 267 245 343 278 358 295 283 263 232 287 262 268 277 273 256 275 278 257 267 212 184 190 130 244 207 171 234 272 320 299 285 236 205 199 182 211 219 216 215 198 172 218 204 242 231 233 236 253 258 296 317 318 311 314 313 310 307 296 234 272 297 299 293 287 277
7 7 336 332 16 34 84 59 88 29 329 342 338 340 339 319 303 319 257 286 96 331 246 267 354 271 256 325 317 312 303 232 225 296 305 296 300 291 294 310 306 285 247 188 174 149 241 211 222 225 235 266 283 309 75 339 110 209 194 209 215 210 212 218 225 228 230 238 249 254 271 279 286 294 295 291 308 315 315 312 317 319 312 295 273 271 272 273
154 64 343 338 336 66 96 60 68 39 357 324 295 6 342 337 312 319 49 301 14 352 297 218 275 346 336 345 332 314 287 281 256 271 271 281 304 305 313 305 301 316 230 187 167 153 191 264 222 224 241 249 266 273 274 280 276 272 275 242 220 208 199 201 205 229 223 259 259 255 248 257 260 261 268 282 298 308 300 301 309 306 302 301 297 290 282 278
55 196 138 151 325 323 6 19 20 343 342 203 248 28 318 337 355 353 321 289 323 315 297 204 200 200 324 307 312 291 310 305 287 267 309 299 313 325 326 326 343 36 125 160 163 196 238 259 227 190 239 250 257 263 268 266 258 258 248 243 245 223 193 203 211 221 163 215 242 246 237 243 253 256 269 277 285 288 298 297 294 292 289 293 295 290 285 279
93 86 148 317 274 216 195 308 326 322 311 183 258 241 326 343 337 2 321 309 322 299 69 305 289 313 315 302 307 283 298 325 321 311 316 314 316 327 316 315 83 67 94 143 185 197 295 253 253 205 254 251 253 256 253 249 251 240 238 237 236 232 224 222 229 211 201 223 236 249 262 262 264 268 270 276 283 281 282 284 280 282 300 312 307 296 282 275
28 348 337 351 288 276 276 309 307 329 341 1 337 324 320 316 317 337 327 299 312 297 292 264 298 317 316 308 287 265 252 252 273 295 305 313 306 318 288 261 283 45 34 162 196 214 235 284 49 258 241 256 252 251 255 255 243 243 240 236 232 233 239 236 243 248 231 242 249 255 263 271 269 265 276 297 277 276 282 291 300 308 317 309 301 290 283 279
88 86 308 339 321 263 228 298 326 0 342 351 342 331 325 307 328 339 306 250 225 260 277 300 316 318 308 300 287 260 253 260 265 260 272 275 265 269 314 271 11 333 346 198 198 251 208 271 322 273 304 303 193 246 250 228 238 244 257 242 218 209 222 218 222 224 221 233 238 246 253 255 264 295 316 291 265 264 283 295 303 309 311 305 296 290 286 284
50 101 238 287 277 17 334 317 285 223 5 84 296 328 344 306 315 335 326 230 229 240 266 289 303 316 299 304 295 296 312 304 291 285 271 263 253 252 239 254 278 275 305 286 272 235 223 258 302 341 320 290 11 310 321 205 200 234 243 254 243 223 248 260 238 223 220 227 237 237 243 255 309 328 314 311 317 308 292 265 286 296 295 294 289 285 281 283